Year,Month,Day,Hour,Minute,Value (Times are PST for barometer in hPa)
2023,02,27,00,00,1005.42
2023,02,27,00,01,1005.42
2023,02,27,00,02,1005.42
2023,02,27,00,03,1005.42
2023,02,27,00,04,1005.49
2023,02,27,00,05,1005.45
2023,02,27,00,06,1005.42
2023,02,27,00,07,1005.52
2023,02,27,00,08,1005.59
2023,02,27,00,09,1005.49
2023,02,27,00,10,1005.59
2023,02,27,00,11,1005.52
2023,02,27,00,12,1005.52
2023,02,27,00,13,1005.55
2023,02,27,00,14,1005.52
2023,02,27,00,15,1005.55
2023,02,27,00,16,1005.62
2023,02,27,00,17,1005.55
2023,02,27,00,18,1005.52
2023,02,27,00,19,1005.55
2023,02,27,00,20,1005.59
2023,02,27,00,21,1005.59
2023,02,27,00,22,1005.59
2023,02,27,00,23,1005.59
2023,02,27,00,24,1005.71
2023,02,27,00,25,1005.55
2023,02,27,00,26,1005.62
2023,02,27,00,27,1005.66
2023,02,27,00,28,1005.59
2023,02,27,00,29,1005.59
2023,02,27,00,30,1005.62
2023,02,27,00,31,1005.55
2023,02,27,00,32,1005.59
2023,02,27,00,33,1005.62
2023,02,27,00,34,1005.59
2023,02,27,00,35,1005.55
2023,02,27,00,36,1005.59
2023,02,27,00,37,1005.62
2023,02,27,00,38,1005.68
2023,02,27,00,39,1005.55
2023,02,27,00,40,1005.66
2023,02,27,00,41,1005.66
2023,02,27,00,42,1005.66
2023,02,27,00,43,1005.59
2023,02,27,00,44,1005.62
2023,02,27,00,45,1005.59
2023,02,27,00,46,1005.62
2023,02,27,00,47,1005.66
2023,02,27,00,48,1005.62
2023,02,27,00,49,1005.66
2023,02,27,00,50,1005.62
2023,02,27,00,51,1005.66
2023,02,27,00,52,1005.66
2023,02,27,00,53,1005.69
2023,02,27,00,54,1005.69
2023,02,27,00,55,1005.69
2023,02,27,00,56,1005.62
2023,02,27,00,57,1005.66
2023,02,27,00,58,1005.72
2023,02,27,00,59,1005.69
2023,02,27,01,00,1005.72
2023,02,27,01,01,1005.69
2023,02,27,01,02,1005.72
2023,02,27,01,03,1005.69
2023,02,27,01,04,1005.69
2023,02,27,01,05,1005.66
2023,02,27,01,06,1005.69
2023,02,27,01,07,1005.66
2023,02,27,01,08,1005.69
2023,02,27,01,09,1005.66
2023,02,27,01,10,1005.69
2023,02,27,01,11,1005.66
2023,02,27,01,12,1005.72
2023,02,27,01,13,1005.66
2023,02,27,01,14,1005.66
2023,02,27,01,15,1005.79
2023,02,27,01,16,1005.76
2023,02,27,01,17,1005.69
2023,02,27,01,18,1005.79
2023,02,27,01,19,1005.76
2023,02,27,01,20,1005.76
2023,02,27,01,21,1005.76
2023,02,27,01,22,1005.76
2023,02,27,01,23,1005.72
2023,02,27,01,24,1005.72
2023,02,27,01,25,1005.69
2023,02,27,01,26,1005.69
2023,02,27,01,27,1005.69
2023,02,27,01,28,1005.76
2023,02,27,01,29,1005.69
2023,02,27,01,30,1005.76
2023,02,27,01,31,1005.72
2023,02,27,01,32,1005.79
2023,02,27,01,33,1005.69
2023,02,27,01,34,1005.72
2023,02,27,01,35,1005.79
2023,02,27,01,36,1005.69
2023,02,27,01,37,1005.72
2023,02,27,01,38,1005.76
2023,02,27,01,39,1005.69
2023,02,27,01,40,1005.66
2023,02,27,01,41,1005.69
2023,02,27,01,42,1005.62
2023,02,27,01,43,1005.62
2023,02,27,01,44,1005.62
2023,02,27,01,45,1005.66
2023,02,27,01,46,1005.62
2023,02,27,01,47,1005.59
2023,02,27,01,48,1005.59
2023,02,27,01,49,1005.66
2023,02,27,01,50,1005.62
2023,02,27,01,51,1005.62
2023,02,27,01,52,1005.55
2023,02,27,01,53,1005.52
2023,02,27,01,54,1005.52
2023,02,27,01,55,1005.58
2023,02,27,01,56,1005.42
2023,02,27,01,57,1005.55
2023,02,27,01,58,1005.52
2023,02,27,01,59,1005.55
2023,02,27,02,00,1005.59
2023,02,27,02,01,1005.65
2023,02,27,02,02,1005.49
2023,02,27,02,03,1005.59
2023,02,27,02,04,1005.62
2023,02,27,02,05,1005.52
2023,02,27,02,06,1005.55
2023,02,27,02,07,1005.52
2023,02,27,02,08,1005.52
2023,02,27,02,09,1005.52
2023,02,27,02,10,1005.55
2023,02,27,02,11,1005.52
2023,02,27,02,12,1005.55
2023,02,27,02,13,1005.55
2023,02,27,02,14,1005.59
2023,02,27,02,15,1005.55
2023,02,27,02,16,1005.59
2023,02,27,02,17,1005.49
2023,02,27,02,18,1005.49
2023,02,27,02,19,1005.49
2023,02,27,02,20,1005.45
2023,02,27,02,21,1005.49
2023,02,27,02,22,1005.45
2023,02,27,02,23,1005.52
2023,02,27,02,24,1005.45
2023,02,27,02,25,1005.45
2023,02,27,02,26,1005.42
2023,02,27,02,27,1005.45
2023,02,27,02,28,1005.42
2023,02,27,02,29,1005.45
2023,02,27,02,30,1005.39
2023,02,27,02,31,1005.49
2023,02,27,02,32,1005.42
2023,02,27,02,33,1005.55
2023,02,27,02,34,1005.42
2023,02,27,02,35,1005.45
2023,02,27,02,36,1005.42
2023,02,27,02,37,1005.45
2023,02,27,02,38,1005.45
2023,02,27,02,39,1005.42
2023,02,27,02,40,1005.35
2023,02,27,02,41,1005.39
2023,02,27,02,42,1005.35
2023,02,27,02,43,1005.39
2023,02,27,02,44,1005.32
2023,02,27,02,45,1005.42
2023,02,27,02,46,1005.32
2023,02,27,02,47,1005.32
2023,02,27,02,48,1005.42
2023,02,27,02,49,1005.35
2023,02,27,02,50,1005.35
2023,02,27,02,51,1005.32
2023,02,27,02,52,1005.32
2023,02,27,02,53,1005.28
2023,02,27,02,54,1005.28
2023,02,27,02,55,1005.28
2023,02,27,02,56,1005.32
2023,02,27,02,57,1005.25
2023,02,27,02,58,1005.28
2023,02,27,02,59,1005.22
2023,02,27,03,00,1005.22
2023,02,27,03,01,1005.22
2023,02,27,03,02,1005.25
2023,02,27,03,03,1005.22
2023,02,27,03,04,1005.25
2023,02,27,03,05,1005.18
2023,02,27,03,06,1005.15
2023,02,27,03,07,1005.11
2023,02,27,03,08,1005.11
2023,02,27,03,09,1005.14
2023,02,27,03,10,1005.01
2023,02,27,03,11,1005.11
2023,02,27,03,12,1005.08
2023,02,27,03,13,1005.05
2023,02,27,03,14,1005.01
2023,02,27,03,15,1005.05
2023,02,27,03,16,1004.98
2023,02,27,03,17,1004.98
2023,02,27,03,18,1004.98
2023,02,27,03,19,1005.05
2023,02,27,03,20,1004.95
2023,02,27,03,21,1004.98
2023,02,27,03,22,1004.91
2023,02,27,03,23,1004.88
2023,02,27,03,24,1004.91
2023,02,27,03,25,1004.88
2023,02,27,03,26,1004.98
2023,02,27,03,27,1004.88
2023,02,27,03,28,1004.88
2023,02,27,03,29,1004.88
2023,02,27,03,30,1004.91
2023,02,27,03,31,1004.98
2023,02,27,03,32,1004.84
2023,02,27,03,33,1004.84
2023,02,27,03,34,1004.81
2023,02,27,03,35,1004.81
2023,02,27,03,36,1004.81
2023,02,27,03,37,1004.78
2023,02,27,03,38,1004.78
2023,02,27,03,39,1004.78
2023,02,27,03,40,1004.71
2023,02,27,03,41,1004.71
2023,02,27,03,42,1004.71
2023,02,27,03,43,1004.71
2023,02,27,03,44,1004.71
2023,02,27,03,45,1004.74
2023,02,27,03,46,1004.64
2023,02,27,03,47,1004.64
2023,02,27,03,48,1004.61
2023,02,27,03,49,1004.57
2023,02,27,03,50,1004.54
2023,02,27,03,51,1004.44
2023,02,27,03,52,1004.44
2023,02,27,03,53,1004.44
2023,02,27,03,54,1004.44
2023,02,27,03,55,1004.47
2023,02,27,03,56,1004.47
2023,02,27,03,57,1004.44
2023,02,27,03,58,1004.40
2023,02,27,03,59,1004.34
2023,02,27,04,00,1004.40
2023,02,27,04,01,1004.37
2023,02,27,04,02,1004.40
2023,02,27,04,03,1004.40
2023,02,27,04,04,1004.34
2023,02,27,04,05,1004.37
2023,02,27,04,06,1004.43
2023,02,27,04,07,1004.23
2023,02,27,04,08,1004.23
2023,02,27,04,09,1004.27
2023,02,27,04,10,1004.27
2023,02,27,04,11,1004.27
2023,02,27,04,12,1004.30
2023,02,27,04,13,1004.34
2023,02,27,04,14,1004.27
2023,02,27,04,15,1004.20
2023,02,27,04,16,1004.23
2023,02,27,04,17,1004.17
2023,02,27,04,18,1004.17
2023,02,27,04,19,1004.20
2023,02,27,04,20,1004.13
2023,02,27,04,21,1004.10
2023,02,27,04,22,1004.03
2023,02,27,04,23,1004.13
2023,02,27,04,24,1004.10
2023,02,27,04,25,1004.03
2023,02,27,04,26,1004.03
2023,02,27,04,27,1004.13
2023,02,27,04,28,1004.06
2023,02,27,04,29,1004.10
2023,02,27,04,30,1004.06
2023,02,27,04,31,1004.06
2023,02,27,04,32,1004.00
2023,02,27,04,33,1004.06
2023,02,27,04,34,1004.00
2023,02,27,04,35,1004.00
2023,02,27,04,36,1003.96
2023,02,27,04,37,1003.96
2023,02,27,04,38,1004.00
2023,02,27,04,39,1003.96
2023,02,27,04,40,1004.03
2023,02,27,04,41,1003.93
2023,02,27,04,42,1004.00
2023,02,27,04,43,1004.00
2023,02,27,04,44,1004.13
2023,02,27,04,45,1004.10
2023,02,27,04,46,1004.03
2023,02,27,04,47,1004.03
2023,02,27,04,48,1004.00
2023,02,27,04,49,1003.96
2023,02,27,04,50,1003.96
2023,02,27,04,51,1003.93
2023,02,27,04,52,1004.00
2023,02,27,04,53,1003.96
2023,02,27,04,54,1004.00
2023,02,27,04,55,1004.00
2023,02,27,04,56,1003.96
2023,02,27,04,57,1003.90
2023,02,27,04,58,1003.90
2023,02,27,04,59,1003.90
2023,02,27,05,00,1003.90
2023,02,27,05,01,1003.93
2023,02,27,05,02,1003.93
2023,02,27,05,03,1003.99
2023,02,27,05,04,1003.86
2023,02,27,05,05,1003.79
2023,02,27,05,06,1003.86
2023,02,27,05,07,1003.79
2023,02,27,05,08,1003.76
2023,02,27,05,09,1003.76
2023,02,27,05,10,1003.73
2023,02,27,05,11,1003.69
2023,02,27,05,12,1003.73
2023,02,27,05,13,1003.73
2023,02,27,05,14,1003.62
2023,02,27,05,15,1003.66
2023,02,27,05,16,1003.49
2023,02,27,05,17,1003.56
2023,02,27,05,18,1003.62
2023,02,27,05,19,1003.59
2023,02,27,05,20,1003.56
2023,02,27,05,21,1003.59
2023,02,27,05,22,1003.56
2023,02,27,05,23,1003.56
2023,02,27,05,24,1003.56
2023,02,27,05,25,1003.56
2023,02,27,05,26,1003.56
2023,02,27,05,27,1003.56
2023,02,27,05,28,1003.52
2023,02,27,05,29,1003.46
2023,02,27,05,30,1003.49
2023,02,27,05,31,1003.39
2023,02,27,05,32,1003.35
2023,02,27,05,33,1003.32
2023,02,27,05,34,1003.35
2023,02,27,05,35,1003.25
2023,02,27,05,36,1003.29
2023,02,27,05,37,1003.25
2023,02,27,05,38,1003.18
2023,02,27,05,39,1003.25
2023,02,27,05,40,1003.15
2023,02,27,05,41,1003.05
2023,02,27,05,42,1003.05
2023,02,27,05,43,1003.12
2023,02,27,05,44,1003.05
2023,02,27,05,45,1003.01
2023,02,27,05,46,1003.05
2023,02,27,05,47,1003.05
2023,02,27,05,48,1002.98
2023,02,27,05,49,1003.01
2023,02,27,05,50,1003.01
2023,02,27,05,51,1002.98
2023,02,27,05,52,1002.91
2023,02,27,05,53,1002.91
2023,02,27,05,54,1002.85
2023,02,27,05,55,1002.91
2023,02,27,05,56,1002.81
2023,02,27,05,57,1002.88
2023,02,27,05,58,1002.78
2023,02,27,05,59,1002.81
2023,02,27,06,00,1002.81
2023,02,27,06,01,1002.74
2023,02,27,06,02,1002.74
2023,02,27,06,03,1002.74
2023,02,27,06,04,1002.71
2023,02,27,06,05,1002.74
2023,02,27,06,06,1002.64
2023,02,27,06,07,1002.64
2023,02,27,06,08,1002.71
2023,02,27,06,09,1002.61
2023,02,27,06,10,1002.64
2023,02,27,06,11,1002.71
2023,02,27,06,12,1002.61
2023,02,27,06,13,1002.64
2023,02,27,06,14,1002.57
2023,02,27,06,15,1002.68
2023,02,27,06,16,1002.64
2023,02,27,06,17,1002.57
2023,02,27,06,18,1002.61
2023,02,27,06,19,1002.57
2023,02,27,06,20,1002.57
2023,02,27,06,21,1002.51
2023,02,27,06,22,1002.61
2023,02,27,06,23,1002.54
2023,02,27,06,24,1002.51
2023,02,27,06,25,1002.61
2023,02,27,06,26,1002.51
2023,02,27,06,27,1002.51
2023,02,27,06,28,1002.51
2023,02,27,06,29,1002.47
2023,02,27,06,30,1002.47
2023,02,27,06,31,1002.44
2023,02,27,06,32,1002.44
2023,02,27,06,33,1002.37
2023,02,27,06,34,1002.34
2023,02,27,06,35,1002.37
2023,02,27,06,36,1002.30
2023,02,27,06,37,1002.24
2023,02,27,06,38,1002.27
2023,02,27,06,39,1002.27
2023,02,27,06,40,1002.27
2023,02,27,06,41,1002.24
2023,02,27,06,42,1002.27
2023,02,27,06,43,1002.24
2023,02,27,06,44,1002.20
2023,02,27,06,45,1002.20
2023,02,27,06,46,1002.17
2023,02,27,06,47,1002.17
2023,02,27,06,48,1002.10
2023,02,27,06,49,1002.17
2023,02,27,06,50,1002.10
2023,02,27,06,51,1002.10
2023,02,27,06,52,1002.07
2023,02,27,06,53,1002.10
2023,02,27,06,54,1002.07
2023,02,27,06,55,1002.16
2023,02,27,06,56,1002.03
2023,02,27,06,57,1001.97
2023,02,27,06,58,1001.97
2023,02,27,06,59,1001.97
2023,02,27,07,00,1001.93
2023,02,27,07,01,1001.90
2023,02,27,07,02,1001.90
2023,02,27,07,03,1001.90
2023,02,27,07,04,1001.97
2023,02,27,07,05,1001.86
2023,02,27,07,06,1001.83
2023,02,27,07,07,1001.80
2023,02,27,07,08,1001.73
2023,02,27,07,09,1001.80
2023,02,27,07,10,1001.80
2023,02,27,07,11,1001.73
2023,02,27,07,12,1001.73
2023,02,27,07,13,1001.73
2023,02,27,07,14,1001.63
2023,02,27,07,15,1001.56
2023,02,27,07,16,1001.56
2023,02,27,07,17,1001.56
2023,02,27,07,18,1001.52
2023,02,27,07,19,1001.56
2023,02,27,07,20,1001.49
2023,02,27,07,21,1001.49
2023,02,27,07,22,1001.46
2023,02,27,07,23,1001.46
2023,02,27,07,24,1001.42
2023,02,27,07,25,1001.39
2023,02,27,07,26,1001.36
2023,02,27,07,27,1001.39
2023,02,27,07,28,1001.39
2023,02,27,07,29,1001.32
2023,02,27,07,30,1001.36
2023,02,27,07,31,1001.32
2023,02,27,07,32,1001.32
2023,02,27,07,33,1001.36
2023,02,27,07,34,1001.29
2023,02,27,07,35,1001.25
2023,02,27,07,36,1001.25
2023,02,27,07,37,1001.25
2023,02,27,07,38,1001.22
2023,02,27,07,39,1001.22
2023,02,27,07,40,1001.22
2023,02,27,07,41,1001.15
2023,02,27,07,42,1001.15
2023,02,27,07,43,1001.15
2023,02,27,07,44,1001.12
2023,02,27,07,45,1001.08
2023,02,27,07,46,1001.15
2023,02,27,07,47,1001.15
2023,02,27,07,48,1001.15
2023,02,27,07,49,1001.19
2023,02,27,07,50,1001.15
2023,02,27,07,51,1001.15
2023,02,27,07,52,1001.12
2023,02,27,07,53,1001.19
2023,02,27,07,54,1001.15
2023,02,27,07,55,1001.15
2023,02,27,07,56,1001.12
2023,02,27,07,57,1001.08
2023,02,27,07,58,1001.15
2023,02,27,07,59,1001.12
2023,02,27,08,00,1001.08
2023,02,27,08,01,1001.08
2023,02,27,08,02,1001.15
2023,02,27,08,03,1001.08
2023,02,27,08,04,1001.12
2023,02,27,08,05,1001.19
2023,02,27,08,06,1001.12
2023,02,27,08,07,1001.15
2023,02,27,08,08,1001.12
2023,02,27,08,09,1001.05
2023,02,27,08,10,1001.05
2023,02,27,08,11,1001.05
2023,02,27,08,12,1001.05
2023,02,27,08,13,1001.05
2023,02,27,08,14,1001.02
2023,02,27,08,15,1001.08
2023,02,27,08,16,1001.05
2023,02,27,08,17,1001.08
2023,02,27,08,18,1001.08
2023,02,27,08,19,1000.98
2023,02,27,08,20,1001.08
2023,02,27,08,21,1001.08
2023,02,27,08,22,1001.02
2023,02,27,08,23,1001.02
2023,02,27,08,24,1000.95
2023,02,27,08,25,1000.95
2023,02,27,08,26,1000.95
2023,02,27,08,27,1001.02
2023,02,27,08,28,1001.02
2023,02,27,08,29,1000.98
2023,02,27,08,30,1000.95
2023,02,27,08,31,1000.98
2023,02,27,08,32,1000.95
2023,02,27,08,33,1000.95
2023,02,27,08,34,1000.98
2023,02,27,08,35,1000.92
2023,02,27,08,36,1000.92
2023,02,27,08,37,1000.98
2023,02,27,08,38,1000.95
2023,02,27,08,39,1000.95
2023,02,27,08,40,1001.02
2023,02,27,08,41,1000.92
2023,02,27,08,42,1001.02
2023,02,27,08,43,1000.95
2023,02,27,08,44,1000.98
2023,02,27,08,45,1000.95
2023,02,27,08,46,1000.98
2023,02,27,08,47,1000.95
2023,02,27,08,48,1000.98
2023,02,27,08,49,1000.92
2023,02,27,08,50,1000.85
2023,02,27,08,51,1000.85
2023,02,27,08,52,1000.81
2023,02,27,08,53,1000.85
2023,02,27,08,54,1000.81
2023,02,27,08,55,1000.78
2023,02,27,08,56,1000.85
2023,02,27,08,57,1000.85
2023,02,27,08,58,1000.78
2023,02,27,08,59,1000.78
2023,02,27,09,00,1000.85
2023,02,27,09,01,1000.78
2023,02,27,09,02,1000.81
2023,02,27,09,03,1000.81
2023,02,27,09,04,1000.71
2023,02,27,09,05,1000.78
2023,02,27,09,06,1000.75
2023,02,27,09,07,1000.75
2023,02,27,09,08,1000.71
2023,02,27,09,09,1000.64
2023,02,27,09,10,1000.71
2023,02,27,09,11,1000.68
2023,02,27,09,12,1000.71
2023,02,27,09,13,1000.68
2023,02,27,09,14,1000.61
2023,02,27,09,15,1000.71
2023,02,27,09,16,1000.68
2023,02,27,09,17,1000.68
2023,02,27,09,18,1000.61
2023,02,27,09,19,1000.64
2023,02,27,09,20,1000.68
2023,02,27,09,21,1000.58
2023,02,27,09,22,1000.71
2023,02,27,09,23,1000.61
2023,02,27,09,24,1000.61
2023,02,27,09,25,1000.61
2023,02,27,09,26,1000.64
2023,02,27,09,27,1000.61
2023,02,27,09,28,1000.61
2023,02,27,09,29,1000.58
2023,02,27,09,30,1000.64
2023,02,27,09,31,1000.54
2023,02,27,09,32,1000.51
2023,02,27,09,33,1000.54
2023,02,27,09,34,1000.51
2023,02,27,09,35,1000.48
2023,02,27,09,36,1000.48
2023,02,27,09,37,1000.51
2023,02,27,09,38,1000.48
2023,02,27,09,39,1000.51
2023,02,27,09,40,1000.44
2023,02,27,09,41,1000.34
2023,02,27,09,42,1000.41
2023,02,27,09,43,1000.37
2023,02,27,09,44,1000.37
2023,02,27,09,45,1000.41
2023,02,27,09,46,1000.37
2023,02,27,09,47,1000.48
2023,02,27,09,48,1000.41
2023,02,27,09,49,1000.41
2023,02,27,09,50,1000.41
2023,02,27,09,51,1000.41
2023,02,27,09,52,1000.31
2023,02,27,09,53,1000.34
2023,02,27,09,54,1000.34
2023,02,27,09,55,1000.31
2023,02,27,09,56,1000.34
2023,02,27,09,57,1000.31
2023,02,27,09,58,1000.34
2023,02,27,09,59,1000.37
2023,02,27,10,00,1000.31
2023,02,27,10,01,1000.34
2023,02,27,10,02,1000.41
2023,02,27,10,03,1000.37
2023,02,27,10,04,1000.31
2023,02,27,10,05,1000.37
2023,02,27,10,06,1000.41
2023,02,27,10,07,1000.31
2023,02,27,10,08,1000.44
2023,02,27,10,09,1000.44
2023,02,27,10,10,1000.44
2023,02,27,10,11,1000.41
2023,02,27,10,12,1000.41
2023,02,27,10,13,1000.44
2023,02,27,10,14,1000.44
2023,02,27,10,15,1000.41
2023,02,27,10,16,1000.41
2023,02,27,10,17,1000.44
2023,02,27,10,18,1000.41
2023,02,27,10,19,1000.48
2023,02,27,10,20,1000.44
2023,02,27,10,21,1000.51
2023,02,27,10,22,1000.51
2023,02,27,10,23,1000.54
2023,02,27,10,24,1000.51
2023,02,27,10,25,1000.51
2023,02,27,10,26,1000.58
2023,02,27,10,27,1000.41
2023,02,27,10,28,1000.37
2023,02,27,10,29,1000.41
2023,02,27,10,30,1000.41
2023,02,27,10,31,1000.37
2023,02,27,10,32,1000.41
2023,02,27,10,33,1000.48
2023,02,27,10,34,1000.44
2023,02,27,10,35,1000.41
2023,02,27,10,36,1000.41
2023,02,27,10,37,1000.34
2023,02,27,10,38,1000.41
2023,02,27,10,39,1000.41
2023,02,27,10,40,1000.41
2023,02,27,10,41,1000.41
2023,02,27,10,42,1000.41
2023,02,27,10,43,1000.41
2023,02,27,10,44,1000.44
2023,02,27,10,45,1000.41
2023,02,27,10,46,1000.44
2023,02,27,10,47,1000.37
2023,02,27,10,48,1000.41
2023,02,27,10,49,1000.41
2023,02,27,10,50,1000.41
2023,02,27,10,51,1000.37
2023,02,27,10,52,1000.41
2023,02,27,10,53,1000.34
2023,02,27,10,54,1000.34
2023,02,27,10,55,1000.31
2023,02,27,10,56,1000.41
2023,02,27,10,57,1000.31
2023,02,27,10,58,1000.27
2023,02,27,10,59,1000.24
2023,02,27,11,00,1000.17
2023,02,27,11,01,1000.14
2023,02,27,11,02,1000.14
2023,02,27,11,03,1000.10
2023,02,27,11,04,1000.10
2023,02,27,11,05,1000.10
2023,02,27,11,06,1000.07
2023,02,27,11,07,1000.07
2023,02,27,11,08,1000.07
2023,02,27,11,09,1000.03
2023,02,27,11,10,1000.07
2023,02,27,11,11,1000.00
2023,02,27,11,12,1000.00
2023,02,27,11,13,1000.03
2023,02,27,11,14,999.97
2023,02,27,11,15,999.97
2023,02,27,11,16,999.97
2023,02,27,11,17,1000.03
2023,02,27,11,18,1000.00
2023,02,27,11,19,999.93
2023,02,27,11,20,999.90
2023,02,27,11,21,999.93
2023,02,27,11,22,999.90
2023,02,27,11,23,999.93
2023,02,27,11,24,999.87
2023,02,27,11,25,999.93
2023,02,27,11,26,999.87
2023,02,27,11,27,999.87
2023,02,27,11,28,999.87
2023,02,27,11,29,999.87
2023,02,27,11,30,999.83
2023,02,27,11,31,999.76
2023,02,27,11,32,999.80
2023,02,27,11,33,999.73
2023,02,27,11,34,999.73
2023,02,27,11,35,999.76
2023,02,27,11,36,999.66
2023,02,27,11,37,999.63
2023,02,27,11,38,999.63
2023,02,27,11,39,999.63
2023,02,27,11,40,999.59
2023,02,27,11,41,999.59
2023,02,27,11,42,999.53
2023,02,27,11,43,999.59
2023,02,27,11,44,999.53
2023,02,27,11,45,999.49
2023,02,27,11,46,999.53
2023,02,27,11,47,999.53
2023,02,27,11,48,999.59
2023,02,27,11,49,999.56
2023,02,27,11,50,999.56
2023,02,27,11,51,999.56
2023,02,27,11,52,999.59
2023,02,27,11,53,999.53
2023,02,27,11,54,999.49
2023,02,27,11,55,999.49
2023,02,27,11,56,999.49
2023,02,27,11,57,999.53
2023,02,27,11,58,999.46
2023,02,27,11,59,999.46
2023,02,27,12,00,999.43
2023,02,27,12,01,999.43
2023,02,27,12,02,999.43
2023,02,27,12,03,999.39
2023,02,27,12,04,999.39
2023,02,27,12,05,999.32
2023,02,27,12,06,999.26
2023,02,27,12,07,999.26
2023,02,27,12,08,999.29
2023,02,27,12,09,999.26
2023,02,27,12,10,999.26
2023,02,27,12,11,999.22
2023,02,27,12,12,999.19
2023,02,27,12,13,999.12
2023,02,27,12,14,999.15
2023,02,27,12,15,999.19
2023,02,27,12,16,999.26
2023,02,27,12,17,999.15
2023,02,27,12,18,999.15
2023,02,27,12,19,999.12
2023,02,27,12,20,999.19
2023,02,27,12,21,999.12
2023,02,27,12,22,999.12
2023,02,27,12,23,999.09
2023,02,27,12,24,999.09
2023,02,27,12,25,999.09
2023,02,27,12,26,999.09
2023,02,27,12,27,999.05
2023,02,27,12,28,998.99
2023,02,27,12,29,998.92
2023,02,27,12,30,998.92
2023,02,27,12,31,998.92
2023,02,27,12,32,998.88
2023,02,27,12,33,998.85
2023,02,27,12,34,998.88
2023,02,27,12,35,998.85
2023,02,27,12,36,998.85
2023,02,27,12,37,998.85
2023,02,27,12,38,998.92
2023,02,27,12,39,998.78
2023,02,27,12,40,998.82
2023,02,27,12,41,998.75
2023,02,27,12,42,998.71
2023,02,27,12,43,998.75
2023,02,27,12,44,998.71
2023,02,27,12,45,998.71
2023,02,27,12,46,998.68
2023,02,27,12,47,998.65
2023,02,27,12,48,998.61
2023,02,27,12,49,998.61
2023,02,27,12,50,998.58
2023,02,27,12,51,998.58
2023,02,27,12,52,998.58
2023,02,27,12,53,998.51
2023,02,27,12,54,998.48
2023,02,27,12,55,998.38
2023,02,27,12,56,998.44
2023,02,27,12,57,998.38
2023,02,27,12,58,998.31
2023,02,27,12,59,998.27
2023,02,27,13,00,998.31
2023,02,27,13,01,998.24
2023,02,27,13,02,998.24
2023,02,27,13,03,998.24
2023,02,27,13,04,998.21
2023,02,27,13,05,998.10
2023,02,27,13,06,998.07
2023,02,27,13,07,998.10
2023,02,27,13,08,998.07
2023,02,27,13,09,998.04
2023,02,27,13,10,998.04
2023,02,27,13,11,998.04
2023,02,27,13,12,998.04
2023,02,27,13,13,997.90
2023,02,27,13,14,997.94
2023,02,27,13,15,997.87
2023,02,27,13,16,997.90
2023,02,27,13,17,997.94
2023,02,27,13,18,997.90
2023,02,27,13,19,997.94
2023,02,27,13,20,997.87
2023,02,27,13,21,997.83
2023,02,27,13,22,997.83
2023,02,27,13,23,997.87
2023,02,27,13,24,997.73
2023,02,27,13,25,997.77
2023,02,27,13,26,997.73
2023,02,27,13,27,997.70
2023,02,27,13,28,997.73
2023,02,27,13,29,997.87
2023,02,27,13,30,997.73
2023,02,27,13,31,997.77
2023,02,27,13,32,997.77
2023,02,27,13,33,997.73
2023,02,27,13,34,997.66
2023,02,27,13,35,997.66
2023,02,27,13,36,997.70
2023,02,27,13,37,997.73
2023,02,27,13,38,997.77
2023,02,27,13,39,997.73
2023,02,27,13,40,997.80
2023,02,27,13,41,997.80
2023,02,27,13,42,997.87
2023,02,27,13,43,997.77
2023,02,27,13,44,997.70
2023,02,27,13,45,997.66
2023,02,27,13,46,997.60
2023,02,27,13,47,997.60
2023,02,27,13,48,997.60
2023,02,27,13,49,997.56
2023,02,27,13,50,997.63
2023,02,27,13,51,997.56
2023,02,27,13,52,997.56
2023,02,27,13,53,997.53
2023,02,27,13,54,997.60
2023,02,27,13,55,997.50
2023,02,27,13,56,997.53
2023,02,27,13,57,997.56
2023,02,27,13,58,997.50
2023,02,27,13,59,997.50
2023,02,27,14,00,997.50
2023,02,27,14,01,997.53
2023,02,27,14,02,997.50
2023,02,27,14,03,997.53
2023,02,27,14,04,997.53
2023,02,27,14,05,997.46
2023,02,27,14,06,997.53
2023,02,27,14,07,997.46
2023,02,27,14,08,997.36
2023,02,27,14,09,997.53
2023,02,27,14,10,997.50
2023,02,27,14,11,997.46
2023,02,27,14,12,997.46
2023,02,27,14,13,997.46
2023,02,27,14,14,997.43
2023,02,27,14,15,997.43
2023,02,27,14,16,997.33
2023,02,27,14,17,997.39
2023,02,27,14,18,997.46
2023,02,27,14,19,997.36
2023,02,27,14,20,997.39
2023,02,27,14,21,997.39
2023,02,27,14,22,997.39
2023,02,27,14,23,997.36
2023,02,27,14,24,997.39
2023,02,27,14,25,997.43
2023,02,27,14,26,997.43
2023,02,27,14,27,997.36
2023,02,27,14,28,997.39
2023,02,27,14,29,997.39
2023,02,27,14,30,997.39
2023,02,27,14,31,997.36
2023,02,27,14,32,997.36
2023,02,27,14,33,997.36
2023,02,27,14,34,997.43
2023,02,27,14,35,997.46
2023,02,27,14,36,997.46
2023,02,27,14,37,997.46
2023,02,27,14,38,997.43
2023,02,27,14,39,997.39
2023,02,27,14,40,997.36
2023,02,27,14,41,997.39
2023,02,27,14,42,997.36
2023,02,27,14,43,997.39
2023,02,27,14,44,997.39
2023,02,27,14,45,997.36
2023,02,27,14,46,997.39
2023,02,27,14,47,997.39
2023,02,27,14,48,997.39
2023,02,27,14,49,997.43
2023,02,27,14,50,997.43
2023,02,27,14,51,997.43
2023,02,27,14,52,997.43
2023,02,27,14,53,997.43
2023,02,27,14,54,997.50
2023,02,27,14,55,997.46
2023,02,27,14,56,997.39
2023,02,27,14,57,997.43
2023,02,27,14,58,997.43
2023,02,27,14,59,997.36
2023,02,27,15,00,997.46
2023,02,27,15,01,997.39
2023,02,27,15,02,997.36
2023,02,27,15,03,997.36
2023,02,27,15,04,997.29
2023,02,27,15,05,997.39
2023,02,27,15,06,997.26
2023,02,27,15,07,997.36
2023,02,27,15,08,997.36
2023,02,27,15,09,997.36
2023,02,27,15,10,997.26
2023,02,27,15,11,997.29
2023,02,27,15,12,997.22
2023,02,27,15,13,997.26
2023,02,27,15,14,997.22
2023,02,27,15,15,997.19
2023,02,27,15,16,997.26
2023,02,27,15,17,997.19
2023,02,27,15,18,997.19
2023,02,27,15,19,997.19
2023,02,27,15,20,997.22
2023,02,27,15,21,997.19
2023,02,27,15,22,997.19
2023,02,27,15,23,997.16
2023,02,27,15,24,997.16
2023,02,27,15,25,997.16
2023,02,27,15,26,997.09
2023,02,27,15,27,997.09
2023,02,27,15,28,997.02
2023,02,27,15,29,996.99
2023,02,27,15,30,997.05
2023,02,27,15,31,996.95
2023,02,27,15,32,996.99
2023,02,27,15,33,996.99
2023,02,27,15,34,996.95
2023,02,27,15,35,996.89
2023,02,27,15,36,996.89
2023,02,27,15,37,996.92
2023,02,27,15,38,996.89
2023,02,27,15,39,996.89
2023,02,27,15,40,996.85
2023,02,27,15,41,996.82
2023,02,27,15,42,996.82
2023,02,27,15,43,996.85
2023,02,27,15,44,996.78
2023,02,27,15,45,996.75
2023,02,27,15,46,996.75
2023,02,27,15,47,996.68
2023,02,27,15,48,996.68
2023,02,27,15,49,996.75
2023,02,27,15,50,996.65
2023,02,27,15,51,996.72
2023,02,27,15,52,996.72
2023,02,27,15,53,996.75
2023,02,27,15,54,996.72
2023,02,27,15,55,996.65
2023,02,27,15,56,996.61
2023,02,27,15,57,996.68
2023,02,27,15,58,996.68
2023,02,27,15,59,996.65
2023,02,27,16,00,996.65
2023,02,27,16,01,996.58
2023,02,27,16,02,996.55
2023,02,27,16,03,996.61
2023,02,27,16,04,996.61
2023,02,27,16,05,996.65
2023,02,27,16,06,996.65
2023,02,27,16,07,996.65